Regional Weather Roundup
Issued by NWS

Home | Current Version | Previous Version | Graphics & Text | Print | Product List | Glossary On
Versions: 1 2 3 4 5 6 7 8 9 10 11 12 13 14 15 16 17 18 19 20 21 22 23 24 25 26 27 28 29 30 31 32 33 34 35 36 37 38 39 40 41 42 43 44 45 46 47 48 49 50
000
ASUS45 KABQ 300110
RWRNM
WEATHER ROUNDUP FOR NEW MEXICO
NATIONAL WEATHER SERVICE ALBUQUERQUE NM
700 PM MDT TUE JUL 29 2014

NOTE: "FAIR" MEANS FEW OR NO CLOUDS BELOW 12,000 FEET AGL WITH NO
       SIGNIFICANT WEATHER OR OBSTRUCTIONS TO VISION.

      THIS PRODUCT IS RELEASED AS TWO VERSIONS.  ONE VERSION NEAR
      THE TOP OF THE HOUR CONTAINING PRELIMINARY DATA FROM ALBUQUERQUE
      AND OTHER STATIONS.  A FINAL VERSION WITH ADDITIONAL DATA IS
      ISSUED ABOUT 10 MINUTES AFTER THE HOUR.

NMZ501-503-504-510>518-300200-
NORTHWEST PLATEAU/NORTHCENTRAL MOUNTAINS

CITY           SKY/WX    TMP DP  RH WIND       PRES   REMARKS
FARMINGTON     MOSUNNY   84  49  29 N18       30.11F
LOS ALAMOS     PTSUNNY   67  55  64 CALM      30.30S
SANTA FE       NOT AVBL
TAOS           PTSUNNY   68  54  60 NE6       30.28F
ANGEL FIRE     CLOUDY    61  54  77 N7        30.38F

$$
NMZ402-403-502-505>509-300200-
WESTCENTRAL MOUNTAINS/SOUTHWEST MOUNTAINS

CITY           SKY/WX    TMP DP  RH WIND       PRES   REMARKS
GALLUP         MOSUNNY   82  45  27 W15       30.21F
SILVER CITY    CLOUDY    72  59  64 E10       30.22F

$$
NMZ407-409-411-412-300200-
SOUTHERN DESERTS

CITY           SKY/WX    TMP DP  RH WIND       PRES   REMARKS
LORDSBURG      FAIR      90  52  27 W8        30.09F
DEMING         HVY RAIN  77  61  57 N10G20    30.12S
LAS CRUCES     CLOUDY    81  55  40 NE8       30.12F
HOLLOMAN AFB   CLOUDY    84  59  42 W6        30.09F
ALAMOGORDO     CLOUDY    82  61  47 CALM      30.12S
T OR C         CLOUDY    74  62  66 S6        30.15F

$$
NMZ519>523-300200-
CENTRAL VALLEYS/CENTRAL HIGHLANDS

CITY           SKY/WX    TMP DP  RH WIND       PRES   REMARKS
ALBUQUERQUE    PTSUNNY   76  63  64 SE7       30.17S
DOUBLE EAGLE   PTSUNNY   75  57  53 E7        30.20F
MORIARTY ARPT  FAIR      64  58  80 S3        30.24F
CLINES CORNERS CLOUDY    64  59  83 W9        30.28F
BELEN          FAIR      68  61  76 SE13G21   30.15F THUNDER
SOCORRO        FAIR      79  60  52 SE16      30.13S

$$
NMZ524>526-539-540-300200-
SOUTHCENTRAL MOUNTAINS

CITY           SKY/WX    TMP DP  RH WIND       PRES   REMARKS
RUIDOSO        CLOUDY    70  55  60 SW7       30.33S

$$
NMZ527>531-300200-
NORTHEAST HIGHLANDS/NORTHEAST PLAINS

CITY           SKY/WX    TMP DP  RH WIND       PRES   REMARKS
LAS VEGAS      CLOUDY    66  62  87 SW12      30.27F
RATON          CLOUDY    68  62  81 W7        30.20F
CLAYTON        PTSUNNY   78  59  51 S13       30.13F

$$
NMZ532>537-300200-
EASTCENTRAL PLAINS

CITY           SKY/WX    TMP DP  RH WIND       PRES   REMARKS
TUCUMCARI      PTSUNNY   79  63  57 SW12      30.09F
CANNON AFB     SUNNY     74  66  76 S12       30.15S
CLOVIS AIRPORT NOT AVBL

$$
NMZ028-029-538-300200-
SOUTHEAST PLAINS

CITY           SKY/WX    TMP DP  RH WIND       PRES   REMARKS
ROSWELL        PTSUNNY   78  68  71 N7        30.08F
ARTESIA        MOSUNNY   90  55  31 SW5       30.06S
CARLSBAD       PTSUNNY   94  51  23 S9        30.03F
HOBBS          PTCLDY    84  59  42 E10       30.11S


$$


USA.gov is the U.S. government's official web portal to all federal, state and local government web resources and services.